![]() |
EMODnet Physics ERDDAP
Easier access to scientific data |
log in|
Brought to you by EMODnet Physics |
| Dataset Title: | NDBC - Collection of dew point temperature (DEWT) TimeSeries - IN SITU MultiPointTimeSeriesObservation
|
| Institution: | NDBC (Dataset ID: TS_DEWT_NDBC) |
| Information: | Summary
| License
| FGDC
| ISO 19115
| Metadata
| Background
| Subset
| Data Access Form
| Make a graph
|
| Name | Last modified | Size | Description | |
|---|---|---|---|---|
| Parent Directory | - | - | ||
| 41044_TS_DEWT_012010.nc | 26-Oct-2024 11:47 | 427324 | ||
| 41044_TS_DEWT_012011.nc | 26-Oct-2024 11:47 | 428652 | ||
| 41044_TS_DEWT_012012.nc | 26-Oct-2024 11:47 | 428675 | ||
| 41044_TS_DEWT_012013.nc | 26-Oct-2024 11:47 | 428981 | ||
| 41044_TS_DEWT_012014.nc | 26-Oct-2024 11:47 | 428197 | ||
| 41044_TS_DEWT_012015.nc | 26-Oct-2024 11:47 | 429494 | ||
| 41044_TS_DEWT_012016.nc | 26-Oct-2024 11:47 | 428236 | ||
| 41044_TS_DEWT_012017.nc | 26-Oct-2024 11:47 | 421048 | ||
| 41044_TS_DEWT_012018.nc | 26-Oct-2024 11:48 | 429493 | ||
| 41044_TS_DEWT_012019.nc | 26-Oct-2024 11:48 | 429468 | ||
| 41044_TS_DEWT_012020.nc | 26-Oct-2024 11:48 | 429476 | ||
| 41044_TS_DEWT_012021.nc | 26-Oct-2024 11:48 | 436664 | ||
| 41044_TS_DEWT_012022.nc | 26-Oct-2024 11:48 | 429494 | ||
| 41044_TS_DEWT_012023.nc | 26-Oct-2024 11:48 | 429493 | ||
| 41044_TS_DEWT_012024.nc | 26-Oct-2024 11:48 | 434902 | ||
| 41044_TS_DEWT_012025.nc | 07-Feb-2025 11:44 | 450031 | ||
| 41044_TS_DEWT_012026.nc | 02-Feb-2026 20:08 | 3859226 | ||
| 41044_TS_DEWT_022010.nc | 26-Oct-2024 11:48 | 429118 | ||
| 41044_TS_DEWT_022011.nc | 26-Oct-2024 11:48 | 427072 | ||
| 41044_TS_DEWT_022012.nc | 26-Oct-2024 11:48 | 428662 | ||
| 41044_TS_DEWT_022013.nc | 26-Oct-2024 11:48 | 429613 | ||
| 41044_TS_DEWT_022014.nc | 26-Oct-2024 11:48 | 428015 | ||
| 41044_TS_DEWT_022015.nc | 26-Oct-2024 11:48 | 429538 | ||
| 41044_TS_DEWT_022016.nc | 26-Oct-2024 11:49 | 429679 | ||
| 41044_TS_DEWT_022017.nc | 26-Oct-2024 11:49 | 429836 | ||
| 41044_TS_DEWT_022018.nc | 26-Oct-2024 11:49 | 427180 | ||
| 41044_TS_DEWT_022019.nc | 26-Oct-2024 11:49 | 425641 | ||
| 41044_TS_DEWT_022020.nc | 26-Oct-2024 11:49 | 429839 | ||
| 41044_TS_DEWT_022021.nc | 26-Oct-2024 11:49 | 429832 | ||
| 41044_TS_DEWT_022022.nc | 26-Oct-2024 11:49 | 429816 | ||
| 41044_TS_DEWT_022023.nc | 26-Oct-2024 11:49 | 429830 | ||
| 41044_TS_DEWT_022024.nc | 16-Sep-2024 16:51 | 428120 | ||
| 41044_TS_DEWT_022025.nc | 01-Mar-2025 08:53 | 429806 | ||
| 41044_TS_DEWT_022026.nc | 01-Mar-2026 11:33 | 449735 | ||
| 41044_TS_DEWT_032010.nc | 26-Oct-2024 11:49 | 451129 | ||
| 41044_TS_DEWT_032011.nc | 26-Oct-2024 11:49 | 492440 | ||
| 41044_TS_DEWT_032012.nc | 26-Oct-2024 11:49 | 4164944 | ||
| 41044_TS_DEWT_032013.nc | 26-Oct-2024 11:49 | 423201 | ||
| 41044_TS_DEWT_032014.nc | 26-Oct-2024 11:49 | 428856 | ||
| 41044_TS_DEWT_032015.nc | 26-Oct-2024 11:49 | 426894 | ||
| 41044_TS_DEWT_032016.nc | 26-Oct-2024 11:49 | 428121 | ||
| 41044_TS_DEWT_032017.nc | 26-Oct-2024 11:50 | 429372 | ||
| 41044_TS_DEWT_032018.nc | 26-Oct-2024 11:50 | 428486 | ||
| 41044_TS_DEWT_032019.nc | 26-Oct-2024 11:50 | 429429 | ||
| 41044_TS_DEWT_032020.nc | 26-Oct-2024 11:50 | 429453 | ||
| 41044_TS_DEWT_032021.nc | 26-Oct-2024 11:50 | 427819 | ||
| 41044_TS_DEWT_032022.nc | 26-Oct-2024 11:50 | 429491 | ||
| 41044_TS_DEWT_032023.nc | 26-Oct-2024 11:50 | 429061 | ||
| 41044_TS_DEWT_032025.nc | 02-Apr-2025 07:03 | 429330 | ||
| 41044_TS_DEWT_032026.nc | 21-Mar-2026 15:40 | 429495 | ||
| 41044_TS_DEWT_042010.nc | 26-Oct-2024 11:50 | 429495 | ||
| 41044_TS_DEWT_042011.nc | 26-Oct-2024 11:50 | 426846 | ||
| 41044_TS_DEWT_042012.nc | 26-Oct-2024 11:50 | 426963 | ||
| 41044_TS_DEWT_042013.nc | 26-Oct-2024 11:50 | 429492 | ||
| 41044_TS_DEWT_042014.nc | 26-Oct-2024 11:50 | 448971 | ||
| 41044_TS_DEWT_042015.nc | 26-Oct-2024 11:50 | 448945 | ||
| 41044_TS_DEWT_042016.nc | 26-Oct-2024 11:50 | 4484713 | ||
| 41044_TS_DEWT_042017.nc | 26-Oct-2024 11:50 | 4535081 | ||
| 41044_TS_DEWT_042018.nc | 26-Oct-2024 11:50 | 428306 | ||
| 41044_TS_DEWT_042019.nc | 26-Oct-2024 11:51 | 429300 | ||
| 41044_TS_DEWT_042020.nc | 26-Oct-2024 11:51 | 428417 | ||
| 41044_TS_DEWT_042021.nc | 26-Oct-2024 11:51 | 427966 | ||
| 41044_TS_DEWT_042022.nc | 26-Oct-2024 11:51 | 429715 | ||
| 41044_TS_DEWT_042023.nc | 26-Oct-2024 11:51 | 429282 | ||
| 41044_TS_DEWT_042025.nc | 01-May-2025 04:37 | 429729 | ||
| 41044_TS_DEWT_052009.nc | 26-Oct-2024 11:51 | 429794 | ||
| 41044_TS_DEWT_052010.nc | 26-Oct-2024 11:51 | 427538 | ||
| 41044_TS_DEWT_052011.nc | 26-Oct-2024 11:51 | 429835 | ||
| 41044_TS_DEWT_052012.nc | 26-Oct-2024 11:51 | 429830 | ||
| 41044_TS_DEWT_052013.nc | 26-Oct-2024 11:51 | 429836 | ||
| 41044_TS_DEWT_052014.nc | 26-Oct-2024 11:51 | 429803 | ||
| 41044_TS_DEWT_052015.nc | 26-Oct-2024 11:51 | 429465 | ||
| 41044_TS_DEWT_052016.nc | 26-Oct-2024 11:51 | 429835 | ||
| 41044_TS_DEWT_052017.nc | 26-Oct-2024 11:51 | 424055 | ||
| 41044_TS_DEWT_052018.nc | 26-Oct-2024 11:51 | 429830 | ||
| 41044_TS_DEWT_052019.nc | 26-Oct-2024 11:52 | 443071 | ||
| 41044_TS_DEWT_052020.nc | 26-Oct-2024 11:52 | 451346 | ||
| 41044_TS_DEWT_052021.nc | 26-Oct-2024 11:52 | 4182387 | ||
| 41044_TS_DEWT_052022.nc | 26-Oct-2024 11:52 | 4427317 | ||
| 41044_TS_DEWT_052023.nc | 26-Oct-2024 11:52 | 428812 | ||
| 41044_TS_DEWT_052025.nc | 01-Jun-2025 04:50 | 426755 | ||
| 41044_TS_DEWT_062009.nc | 26-Oct-2024 11:52 | 429153 | ||
| 41044_TS_DEWT_062010.nc | 26-Oct-2024 11:52 | 429286 | ||
| 41044_TS_DEWT_062011.nc | 26-Oct-2024 11:52 | 429306 | ||
| 41044_TS_DEWT_062012.nc | 26-Oct-2024 11:52 | 425875 | ||
| 41044_TS_DEWT_062013.nc | 26-Oct-2024 11:52 | 429567 | ||
| 41044_TS_DEWT_062014.nc | 26-Oct-2024 11:52 | 425785 | ||
| 41044_TS_DEWT_062015.nc | 26-Oct-2024 11:52 | 429660 | ||
| 41044_TS_DEWT_062016.nc | 26-Oct-2024 11:52 | 429686 | ||
| 41044_TS_DEWT_062017.nc | 26-Oct-2024 11:53 | 429887 | ||
| 41044_TS_DEWT_062018.nc | 26-Oct-2024 11:53 | 429894 | ||
| 41044_TS_DEWT_062019.nc | 26-Oct-2024 11:53 | 429895 | ||
| 41044_TS_DEWT_062020.nc | 26-Oct-2024 11:53 | 429909 | ||
| 41044_TS_DEWT_062021.nc | 26-Oct-2024 11:53 | 429714 | ||
| 41044_TS_DEWT_062022.nc | 26-Oct-2024 11:53 | 429844 | ||
| 41044_TS_DEWT_062023.nc | 26-Oct-2024 11:53 | 432347 | ||
| 41044_TS_DEWT_062025.nc | 01-Jul-2025 08:43 | 3827109 | ||
| 41044_TS_DEWT_072009.nc | 26-Oct-2024 11:53 | 3003084 | ||
| 41044_TS_DEWT_072010.nc | 26-Oct-2024 11:53 | 420781 | ||
| 41044_TS_DEWT_072011.nc | 26-Oct-2024 11:53 | 428039 | ||
| 41044_TS_DEWT_072012.nc | 26-Oct-2024 11:53 | 427239 | ||
| 41044_TS_DEWT_072013.nc | 26-Oct-2024 11:53 | 428299 | ||
| 41044_TS_DEWT_072014.nc | 26-Oct-2024 11:53 | 422254 | ||
| 41044_TS_DEWT_072015.nc | 26-Oct-2024 11:53 | 428365 | ||
| 41044_TS_DEWT_072016.nc | 26-Oct-2024 11:53 | 426655 | ||
| 41044_TS_DEWT_072017.nc | 26-Oct-2024 11:53 | 428426 | ||
| 41044_TS_DEWT_072018.nc | 26-Oct-2024 11:53 | 426754 | ||
| 41044_TS_DEWT_072019.nc | 26-Oct-2024 11:54 | 428632 | ||
| 41044_TS_DEWT_072020.nc | 26-Oct-2024 11:54 | 428833 | ||
| 41044_TS_DEWT_072021.nc | 26-Oct-2024 11:54 | 428878 | ||
| 41044_TS_DEWT_072022.nc | 26-Oct-2024 11:54 | 428885 | ||
| 41044_TS_DEWT_072023.nc | 26-Oct-2024 11:54 | 428883 | ||
| 41044_TS_DEWT_072025.nc | 01-Aug-2025 05:04 | 429209 | ||
| 41044_TS_DEWT_082009.nc | 26-Oct-2024 11:54 | 428869 | ||
| 41044_TS_DEWT_082010.nc | 26-Oct-2024 11:54 | 428771 | ||
| 41044_TS_DEWT_082011.nc | 26-Oct-2024 11:54 | 428746 | ||
| 41044_TS_DEWT_082012.nc | 26-Oct-2024 11:54 | 2948130 | ||
| 41044_TS_DEWT_082013.nc | 26-Oct-2024 11:54 | 4261251 | ||
| 41044_TS_DEWT_082014.nc | 26-Oct-2024 11:54 | 428982 | ||
| 41044_TS_DEWT_082015.nc | 26-Oct-2024 11:54 | 428765 | ||
| 41044_TS_DEWT_082016.nc | 26-Oct-2024 11:54 | 428734 | ||
| 41044_TS_DEWT_082017.nc | 26-Oct-2024 11:54 | 428909 | ||
| 41044_TS_DEWT_082018.nc | 26-Oct-2024 11:54 | 429259 | ||
| 41044_TS_DEWT_082019.nc | 26-Oct-2024 11:54 | 429397 | ||
| 41044_TS_DEWT_082020.nc | 26-Oct-2024 11:54 | 427445 | ||
| 41044_TS_DEWT_082021.nc | 26-Oct-2024 11:55 | 425202 | ||
| 41044_TS_DEWT_082022.nc | 26-Oct-2024 11:55 | 429228 | ||
| 41044_TS_DEWT_082023.nc | 26-Oct-2024 11:55 | 428951 | ||
| 41044_TS_DEWT_082025.nc | 01-Sep-2025 04:55 | 429916 | ||
| 41044_TS_DEWT_092009.nc | 26-Oct-2024 11:55 | 429765 | ||
| 41044_TS_DEWT_092010.nc | 26-Oct-2024 11:55 | 429908 | ||
| 41044_TS_DEWT_092011.nc | 26-Oct-2024 11:55 | 429918 | ||
| 41044_TS_DEWT_092012.nc | 26-Oct-2024 11:55 | 429911 | ||
| 41044_TS_DEWT_092013.nc | 26-Oct-2024 11:55 | 429194 | ||
| 41044_TS_DEWT_092014.nc | 26-Oct-2024 11:55 | 433670 | ||
| 41044_TS_DEWT_092015.nc | 26-Oct-2024 11:55 | 429892 | ||
| 41044_TS_DEWT_092016.nc | 26-Oct-2024 11:55 | 439855 | ||
| 41044_TS_DEWT_092017.nc | 26-Oct-2024 11:55 | 2709228 | ||
| 41044_TS_DEWT_092018.nc | 26-Oct-2024 11:55 | 3084216 | ||
| 41044_TS_DEWT_092019.nc | 26-Oct-2024 11:55 | 427078 | ||
| 41044_TS_DEWT_092020.nc | 26-Oct-2024 11:55 | 427718 | ||
| 41044_TS_DEWT_092021.nc | 26-Oct-2024 11:55 | 428213 | ||
| 41044_TS_DEWT_092022.nc | 26-Oct-2024 11:55 | 428483 | ||
| 41044_TS_DEWT_092023.nc | 26-Oct-2024 11:55 | 428891 | ||
| 41044_TS_DEWT_092025.nc | 01-Oct-2025 04:41 | 429055 | ||
| 41044_TS_DEWT_102009.nc | 26-Oct-2024 11:56 | 427797 | ||
| 41044_TS_DEWT_102010.nc | 26-Oct-2024 11:56 | 427573 | ||
| 41044_TS_DEWT_102011.nc | 26-Oct-2024 11:56 | 429462 | ||
| 41044_TS_DEWT_102012.nc | 26-Oct-2024 11:56 | 429558 | ||
| 41044_TS_DEWT_102013.nc | 26-Oct-2024 11:56 | 429542 | ||
| 41044_TS_DEWT_102014.nc | 26-Oct-2024 11:56 | 429571 | ||
| 41044_TS_DEWT_102015.nc | 26-Oct-2024 11:56 | 429571 | ||
| 41044_TS_DEWT_102016.nc | 26-Oct-2024 11:56 | 429566 | ||
| 41044_TS_DEWT_102017.nc | 26-Oct-2024 11:56 | 429571 | ||
| 41044_TS_DEWT_102018.nc | 26-Oct-2024 11:56 | 432398 | ||
| 41044_TS_DEWT_102019.nc | 26-Oct-2024 11:56 | 429528 | ||
| 41044_TS_DEWT_102020.nc | 26-Oct-2024 11:56 | 429573 | ||
| 41044_TS_DEWT_102021.nc | 26-Oct-2024 11:56 | 448179 | ||
| 41044_TS_DEWT_102022.nc | 26-Oct-2024 11:56 | 428443 | ||
| 41044_TS_DEWT_102023.nc | 26-Oct-2024 11:56 | 427298 | ||
| 41044_TS_DEWT_102025.nc | 01-Nov-2025 07:36 | 428587 | ||
| 41044_TS_DEWT_112009.nc | 26-Oct-2024 11:56 | 428954 | ||
| 41044_TS_DEWT_112010.nc | 26-Oct-2024 11:57 | 429379 | ||
| 41044_TS_DEWT_112011.nc | 26-Oct-2024 11:57 | 427739 | ||
| 41044_TS_DEWT_112012.nc | 26-Oct-2024 11:57 | 429889 | ||
| 41044_TS_DEWT_112013.nc | 26-Oct-2024 11:57 | 429829 | ||
| 41044_TS_DEWT_112014.nc | 26-Oct-2024 11:57 | 419760 | ||
| 41044_TS_DEWT_112015.nc | 26-Oct-2024 11:57 | 427539 | ||
| 41044_TS_DEWT_112016.nc | 26-Oct-2024 11:57 | 429821 | ||
| 41044_TS_DEWT_112017.nc | 26-Oct-2024 11:57 | 429767 | ||
| 41044_TS_DEWT_112018.nc | 26-Oct-2024 11:57 | 429916 | ||
| 41044_TS_DEWT_112019.nc | 26-Oct-2024 11:57 | 429026 | ||
| 41044_TS_DEWT_112020.nc | 26-Oct-2024 11:57 | 429911 | ||
| 41044_TS_DEWT_112021.nc | 26-Oct-2024 11:57 | 429911 | ||
| 41044_TS_DEWT_112022.nc | 26-Oct-2024 11:57 | 429913 | ||
| 41044_TS_DEWT_112023.nc | 26-Oct-2024 11:57 | 449126 | ||
| 41044_TS_DEWT_112024.nc | 17-Jan-2025 15:08 | 427638 | ||
| 41044_TS_DEWT_112025.nc | 01-Dec-2025 09:25 | 428983 | ||
| 41044_TS_DEWT_122009.nc | 26-Oct-2024 11:57 | 428061 | ||
| 41044_TS_DEWT_122010.nc | 26-Oct-2024 11:58 | 427660 | ||
| 41044_TS_DEWT_122011.nc | 26-Oct-2024 11:58 | 427302 | ||
| 41044_TS_DEWT_122012.nc | 26-Oct-2024 11:58 | 429550 | ||
| 41044_TS_DEWT_122013.nc | 26-Oct-2024 11:58 | 429407 | ||
| 41044_TS_DEWT_122014.nc | 26-Oct-2024 11:58 | 420912 | ||
| 41044_TS_DEWT_122015.nc | 26-Oct-2024 11:58 | 429567 | ||
| 41044_TS_DEWT_122016.nc | 26-Oct-2024 11:58 | 429246 | ||
| 41044_TS_DEWT_122017.nc | 26-Oct-2024 11:58 | 429573 | ||
| 41044_TS_DEWT_122018.nc | 26-Oct-2024 11:58 | 429566 | ||
| 41044_TS_DEWT_122019.nc | 26-Oct-2024 11:58 | 429571 | ||
| 41044_TS_DEWT_122020.nc | 26-Oct-2024 11:58 | 429560 | ||
| 41044_TS_DEWT_122021.nc | 26-Oct-2024 11:58 | 429546 | ||
| 41044_TS_DEWT_122022.nc | 26-Oct-2024 11:58 | 429571 | ||
| 41044_TS_DEWT_122023.nc | 26-Oct-2024 11:59 | 429571 | ||
| 41044_TS_DEWT_122024.nc | 22-Jan-2025 22:32 | 448129 | ||
| 41044_TS_DEWT_122025.nc | 01-Jan-2026 09:06 | 429340 | ||